Volver al catálogo

STARLINK-6290

ActivoComunicacionesVLEO
NORAD 57328·PAYLOAD·🇺🇸 United States

Lanzado Jul 16, 2023 desde Cape Canaveral Space Force Station

Loading…

Próximos Pases (próximas 24 horas)

TLE

ActualizadoSource: CelesTrak SupGP

Época: Sep 15, 2026, 02:50 UTC

1 57328C 23099A   26258.11854167 -.00017184  00000+0 -62232-3 0  2582
2 57328  43.0035 262.2990 0001749 305.3624 311.9983 15.27591586    10

Sigue STARLINK-6290 en tiempo real con AllMySat

Download on the App Store